Portada
METAR-TAF:

METAR-TAF

Aeropuertos :

Fairfield Municipal Airport

Fairfield, Iowa, Estados Unidos

latitud: 41-03N, longitud: 091-59W, altitud: 244 m

Observación

El informe se hizo hace 34 minutos, a las 07:35 UTC
Viento 4 kt del noreste
Temperatura 20°C
Humedad 94%
Presión 1016 hPa
Visibilidad: 16.1 km
Cielo nuboso a una altura de 11000 ft
Cielo nuboso a una altura de 14000 ft

METAR: KFFL 060735Z AUTO 05004KT 10SM BKN110 BKN140 20/19 A2999 RMK A01

Hora: 03:09 (08:09 UTC)


TAF: falta

Observaciones y pronósticos meteorológicos de más de 4000 aeropuertos (mensajes METAR y TAF).

Los puntos amarillos y rojos representan las estaciones disponibles.

Ponga el ratón en el punto deseado para ver el nombre de la estación.

Haga clic para ver las observaciones y los pronósticos meteorológicos.

Para cambiar el mapa : haga clic en los botones verdes con una cruz de color negro para hacer un zoom, en el botón verde con un guión para alejar o en las flechas verdes para mapas adyacentes.


METAR-TAF: